Home > Weather > Viña del Mar > Past weeks

Flag for Chile Past Weather in Viña del Mar, Chile — Yesterday and Last 2 Weeks

Now
45 °F

Scattered clouds.


Feels Like: 41 °F
Forecast: 49 / 56 °F
Wind: 6 mph from Northeast

Location: Pudahuel

Current Time: Jul 1, 2016 at 9:40:34 AM

Latest Report: Jul 1, 2016 at 8:00 AM


Visibility: 2 mi

Pressure: 29.98 "Hg

Humidity: 87%

Dew Point: 41 °F

Location of Viña del MarLocation

Past Weather in Viña del Mar — Graph

°F

Viña del Mar Temperature Yesterday

Maximum temperature yesterday: 54 °F (at 3:00 PM)
Minimum temperature yesterday: 43 °F (at 1:00 AM)
Average temperature yesterday: 47 °F

High & Low Weather Summary for the Past Weeks

 TemperatureHumidityPressure
High73 °F (Jun 28, 4:00 PM)100% (Jun 16, 9:00 AM)30.21 "Hg (Jun 16, 9:00 AM)
Low32 °F (Jun 25, 3:00 AM)22% (Jun 21, 3:00 PM)29.92 "Hg (Jun 28, 3:00 PM)
Average46 °F78%30.07 "Hg
* Reported Jun 16 8:00 AM — Jul 1 8:00 AM, Viña del Mar, Weather by CustomWeather, © 2016

Note: Actual official high and low records may vary slightly from our data, if they occured in-between our weather recording intervals... More about our weather records

Advertising

Viña del Mar Weather History for the Previous 24 Hours

Scroll right to see more
 ConditionsComfort  
Time TempWeatherWind HumidityBarometerVisibility
8:00 AM
Fri, Jul 1
45 °FScattered clouds.6 mph87%29.98 "Hg2 mi
7:00 AM43 °FFog.1 mph87%29.98 "Hg2 mi
6:00 AM43 °FFog.5 mph87%29.98 "Hg2 mi
5:00 AM43 °FFog.2 mph93%29.98 "Hg1 mi
4:00 AM43 °FFog.6 mph87%29.98 "Hg2 mi
3:00 AM45 °FFog.2 mph87%29.98 "Hg2 mi
2:00 AM45 °FFog.2 mph87%29.98 "Hg2 mi
1:00 AM45 °FFog.6 mph93%29.98 "Hg2 mi
12:00 AM46 °FFog.3 mph82%29.98 "Hg2 mi
11:00 PM
Thu, Jun 30
48 °FFog.3 mph82%29.98 "Hg2 mi
10:00 PM45 °FFog.3 mph87%30.01 "Hg2 mi
9:00 PM50 °FPartly cloudy.6 mph76%30.01 "Hg3 mi
8:00 PM48 °FPartly cloudy.5 mph82%30.01 "Hg3 mi
7:00 PM50 °FMostly cloudy.2 mph76%30.01 "Hg3 mi
6:00 PM52 °FMostly cloudy.1 mph72%29.98 "Hg3 mi
5:00 PM54 °FPassing clouds.2 mph72%29.95 "Hg3 mi
4:00 PM54 °FPartly sunny.2 mph72%29.95 "Hg3 mi
3:00 PM54 °FBroken clouds.No wind67%29.95 "Hg2 mi
2:00 PM52 °FBroken clouds.2 mph72%29.98 "Hg2 mi
1:00 PM48 °FBroken clouds.2 mph82%30.01 "Hg2 mi
12:00 PM46 °FFog.5 mph87%30.04 "Hg2 mi
11:00 AM46 °FFog.7 mph87%30.04 "Hg2 mi
10:00 AM45 °FFog.1 mph93%30.04 "Hg2 mi
9:00 AM45 °FFog.9 mph87%30.04 "Hg2 mi
Weather by CustomWeather, © 2016

See weather overviewHow to use our weather pages